This demonstration page uses our WeatherBlox Daily Observations layout. Learn more.

Left ArrowRight Arrow

39.08367, -84.50855

Hourly Observations for August 28, 2015

Temp ( °F °C ) Dew Point ( °F °C ) Humidity (%) Winds ( mph kmh ) Pressure ( in mb ) Visibility ( mi km ) Precip ( " mm )
12:53 am 00:53 Clear with Mist and Fog 57 13.9 57 13.9 100 100 N N/A 30.14 1021 4 6 N/A
1:07 am 01:07 Clear with Mist and Fog 57 13.9 57 13.9 100 100 N N/A 30.15 1021 2 2 N/A
1:22 am 01:22 Clear with Mist and Fog 57 14 57 14 100 100 N N/A 30.15 1021 3 5 N/A
1:26 am 01:26 Clear with Mist and Fog 55 13 55 13 100 100 N N/A 30.15 1021 2 3 N/A
1:36 am 01:36 Clear with Fog 55 13 55 13 100 100 N N/A 30.15 1021 1 1 N/A
1:53 am 01:53 Clear with Mist and Fog 57 13.9 57 13.9 100 100 N N/A 30.14 1021 1 2 N/A
1:56 am 01:56 Clear with Mist and Fog 57 14 55 13 94 94 N N/A 30.15 1021 3 5 N/A
2:17 am 02:17 Clear with Mist and Fog 54 12.2 54 12.2 100 100 N N/A 30.15 1021 1 2 N/A
2:24 am 02:24 Mostly Cloudy with Fog 55 13 55 13 100 100 N N/A 30.15 1021 1 1 N/A
2:29 am 02:29 Clear with Mist and Fog 55 12.8 55 12.8 100 100 N N/A 30.15 1021 1 2 N/A
2:33 am 02:33 Mostly Clear with Mist and Fog 55 12.8 55 12.8 100 100 N N/A 30.15 1021 3 4 N/A
2:40 am 02:40 Mostly Clear with Mist and Fog 55 13 55 13 100 100 N N/A 30.15 1021 6 10 N/A
2:48 am 02:48 Mostly Clear with Mist and Fog 55 13 55 13 100 100 N N/A 30.15 1021 2 3 N/A
2:53 am 02:53 Mostly Clear with Mist and Fog 55 12.8 55 12.8 100 100 NE 3 6 30.14 1021 4 6 N/A
3:06 am 03:06 Mostly Clear with Mist and Fog 55 13 55 13 100 100 NE 3 6 30.15 1021 1 2 N/A
3:08 am 03:08 Mostly Cloudy with Mist and Fog 55 13 55 13 100 100 NE 3 6 30.15 1021 1 1 N/A
3:20 am 03:20 Mostly Cloudy with Mist and Fog 54 12 54 12 100 100 N N/A 30.15 1021 1 2 N/A
3:23 am 03:23 Mostly Clear with Mist and Fog 54 12.2 54 12.2 100 100 N N/A 30.15 1021 2 3 N/A
3:39 am 03:39 Mostly Clear with Mist and Fog 54 12.2 54 12.2 100 100 ENE 3 6 30.15 1021 4 6 N/A
3:41 am 03:41 Mostly Clear with Mist and Fog 54 12.2 54 12.2 100 100 NE 3 6 30.15 1021 2 3 N/A
3:46 am 03:46 Mostly Cloudy with Mist and Fog 54 12 54 12 100 100 NE 3 6 30.15 1021 1 1 N/A
3:51 am 03:51 Mostly Clear with Mist and Fog 54 12 54 12 100 100 N N/A 30.15 1021 1 2 N/A
3:53 am 03:53 Mostly Clear with Mist and Fog 54 12.2 54 12.2 100 100 N N/A 30.14 1021 2 2 N/A
3:56 am 03:56 Mostly Clear with Mist and Fog 54 12 54 12 100 100 N N/A 30.15 1021 3 5 N/A
4:06 am 04:06 Mostly Clear with Mist and Fog 52 11 52 11 100 100 N N/A 30.15 1021 1 2 N/A
4:11 am 04:11 Mostly Cloudy with Fog 52 11.1 52 11.1 100 100 E 3 6 30.15 1021 0 0 N/A
4:20 am 04:20 Partly Cloudy with Mist and Fog 54 12 54 12 100 100 ENE 3 6 30.15 1021 1 2 N/A
4:24 am 04:24 Partly Cloudy with Mist and Fog 54 12 54 12 100 100 ENE 3 6 30.15 1021 3 5 N/A
4:27 am 04:27 Partly Cloudy with Mist and Fog 54 12 54 12 100 100 N N/A 30.15 1021 2 2 N/A
4:41 am 04:41 Mostly Clear with Mist and Fog 53 11.7 53 11.7 100 100 NE 3 6 30.15 1021 3 5 N/A
4:53 am 04:53 Clear with Mist and Fog 53 11.7 53 11.7 100 100 ENE 3 6 30.16 1021 2 3 N/A
5:11 am 05:11 Mostly Cloudy with Fog 55 12.8 55 12.8 100 100 N N/A 30.18 1022 1 1 N/A
5:22 am 05:22 Clear with Mist and Fog 54 12 54 12 100 100 N N/A 30.18 1022 1 2 N/A
5:28 am 05:28 Clear with Mist and Fog 54 12.2 54 12.2 100 100 NNE 3 6 30.15 1021 3 5 N/A
5:53 am 05:53 Clear 53 11.7 53 11.7 100 100 N 3 6 30.17 1022 8 13 N/A
6:01 am 06:01 Clear with Mist and Fog 52 11.1 52 11.1 100 100 N N/A 30.18 1022 1 1 N/A
6:11 am 06:11 Clear with Mist and Fog 53 11.7 53 11.7 100 100 ENE 3 6 30.18 1022 2 3 N/A
6:23 am 06:23 Clear with Mist and Fog 53 11.7 53 11.7 100 100 N N/A 30.18 1022 1 2 N/A
6:30 am 06:30 Clear with Mist and Fog 54 12.2 54 12.2 100 100 N N/A 30.18 1022 4 6 N/A
6:38 am 06:38 Mostly Clear with Mist and Fog 52 11 52 11 100 100 E 3 6 30.18 1022 1 2 N/A
6:40 am 06:40 Mostly Cloudy with Mist and Fog 52 11 52 11 100 100 N N/A 30.18 1022 1 1 N/A
6:45 am 06:45 Clear with Mist and Fog 52 11.1 52 11.1 100 100 N N/A 30.18 1022 7 11 N/A
6:53 am 06:53 Clear with Patchy Fog 52 11.1 52 11.1 100 100 N N/A 30.19 1022 7 11 N/A
7:53 am 07:53 Sunny with Patchy Fog 54 12.2 54 12.2 100 100 NNE 5 7 30.20 1023 3 5 N/A
8:53 am 08:53 Sunny 58 14.4 57 13.9 97 97 NE 3 6 30.20 1023 10 16 N/A
9:53 am 09:53 Sunny 65 18.3 60 15.6 84 84 N N/A 30.21 1023 10 16 N/A
10:53 am 10:53 Sunny 71 21.7 62 16.7 73 73 NNE 5 7 30.19 1023 10 16 N/A
11:53 am 11:53 Mostly Sunny 74 23.3 62 16.7 67 67 VRB 3 6 30.20 1023 10 16 N/A
12:53 pm 12:53 Sunny 76 24.4 57 13.9 52 52 ENE 8 13 30.18 1022 10 16 N/A
1:53 pm 13:53 Sunny 78 25.6 57 13.9 48 48 undefined N/A 30.16 1022 10 16 N/A
2:53 pm 14:53 Mostly Sunny 79 26.1 57 13.9 47 47 VRB 5 7 30.15 1021 10 16 N/A
3:53 pm 15:53 Sunny 78 25.6 59 15 52 52 SSW 7 11 30.13 1020 10 16 N/A
4:53 pm 16:53 Sunny 79 26.1 58 14.4 49 49 S 3 6 30.11 1020 10 16 N/A
5:53 pm 17:53 Sunny 78 25.6 57 13.9 48 48 N N/A 30.11 1020 10 16 N/A
6:53 pm 18:53 Sunny 78 25.6 59 15 52 52 ESE 3 6 30.11 1020 10 16 N/A
7:53 pm 19:53 Sunny 70 21.1 65 18.3 84 84 E 3 6 30.10 1019 10 16 N/A
8:53 pm 20:53 Clear 65 18.3 62 16.7 90 90 N N/A 30.11 1020 10 16 N/A
9:53 pm 21:53 Clear 64 17.8 61 16.1 90 90 N N/A 30.12 1020 10 16 N/A
10:53 pm 22:53 Clear 63 17.2 61 16.1 93 93 N N/A 30.13 1020 10 16 N/A
11:53 pm 23:53 Clear 62 16.7 60 15.6 93 93 N N/A 30.14 1021 8 13 N/A

Powered by AerisWeather